VE3KSR Weather Reports


Display with metric or nautical units.
time (UTC)temp
F
wind
direction
speed
MPH
gust
MPH
rain 1hr
in
rain 24hr
in
rain mn
in
humidity
%
barometer
mb
20260904022230 0 0 0.0 0.0 0.00 0.00 0.00 96
20260904021726 0 0 0.0 0.0 0.00 0.00 0.00 96
20260904021225 0 0 0.0 0.0 0.00 0.00 0.00 96
20260904020728 0 0 0.0 0.0 0.00 0.00 0.00 96
20260904020226 0 0 0.0 0.0 0.00 0.00 0.00 96
20260904015726 0 0 0.0 0.0 0.00 0.00 0.00 96
20260904015226 0 0 0.0 0.0 0.00 0.00 0.00 96
20260904014725 0 0 0.0 0.0 0.00 0.00 0.00 95
20260904014225 0 0 0.0 0.0 0.00 0.00 0.00 95
20260904013725 0 0 0.0 0.0 0.00 0.00 0.00 95
20260904013227 0 0 0.0 0.0 0.00 0.00 0.00 95
20260904012725 0 0 0.0 0.0 0.00 0.00 0.00 96
20260904012225 0 0 0.0 0.0 0.00 0.00 0.00 96
20260904011725 0 0 0.0 0.0 0.00 0.00 0.00 96
20260904010726 0 0 0.0 0.0 0.00 0.00 0.00 96
20260904005725 0 0 0.0 0.0 0.00 0.00 0.00 96
20260904005226 14 0 0.0 0.0 0.00 0.00 0.00 96
20260904004725 16 0 0.0 0.0 0.00 0.00 0.00 96
20260904004226 18 0 0.0 0.0 0.00 0.00 0.00 96
20260904003725 23 0 0.0 0.0 0.00 0.00 0.00 96
20260904003226 0 0 0.0 0.0 0.00 0.00 0.00 96
20260904002726 0 0 0.0 0.0 0.00 0.00 0.00 96
20260904002225 0 0 0.0 0.0 0.00 0.00 0.00 96
20260904001725 0 0 0.0 0.0 0.00 0.00 0.00 96
20260904001225 0 0 0.0 0.0 0.00 0.00 0.00 96
20260904000725 0 0 0.0 0.0 0.00 0.00 0.00 97
20260904000227 0 0 0.0 0.0 0.00 0.00 0.00 97
20260903235725 0 0 0.0 0.0 0.00 0.00 0.00 97
20260903235226 0 0 0.0 0.0 0.00 0.00 0.00 97
20260903234725 0 0 0.0 0.0 0.00 0.00 0.00 97
20260903234225 0 0 0.0 0.0 0.00 0.00 0.00 98
20260903233725 0 0 0.0 0.0 0.00 0.00 0.00 99
20260903233226 0 0 0.0 0.0 0.00 0.00 0.00 99
20260903232734 0 0 0.0 0.0 0.00 0.00 0.00 100
20260903232225 0 0 0.0 0.0 0.00 0.00 0.00 99
20260903231725 0 0 0.0 0.0 0.00 0.00 0.00 99
20260903231226 0 0 0.0 0.0 0.00 0.00 0.00 99
20260903230725 0 0 0.0 0.0 0.00 0.00 0.00 98
20260903230225 0 0 0.0 0.0 0.00 0.00 0.00 98
20260903225725 0 308 1.0 6.0 0.00 0.00 0.00 98
20260903225226 0 0 0.0 0.0 0.00 0.00 0.00 97
20260903224726 0 0 0.0 0.0 0.00 0.00 0.00 97
20260903224226 0 0 0.0 0.0 0.00 0.00 0.00 97
20260903223729 0 0 0.0 0.0 0.00 0.00 0.00 96
20260903223226 0 316 0.0 3.0 0.00 0.00 0.00 96
20260903222726 0 316 0.0 1.0 0.00 0.00 0.00 96
20260903222225 0 0 0.0 0.0 0.00 0.00 0.00 95
20260903221725 0 304 1.0 9.0 0.00 0.00 0.00 95
20260903221232 0 0 0.0 0.0 0.00 0.00 0.00 94
20260903220726 0 0 0.0 0.0 0.00 0.00 0.00 94
20260903220226 -8 359 1.0 3.0 0.00 0.00 0.00 94
20260903215726 0 0 0.0 0.0 0.00 0.00 0.00 94
20260903215226 0 0 0.0 0.0 0.00 0.00 0.00 94
20260903214726 0 0 0.0 0.0 0.00 0.00 0.00 93
20260903213726 0 0 0.0 0.0 0.00 0.00 0.00 92
20260903213226 0 328 0.0 2.0 0.00 0.00 0.00 92
20260903212726 0 14 0.0 3.0 0.00 0.00 0.00 91
20260903212226 0 0 0.0 0.0 0.00 0.00 0.00 91
20260903211726 0 0 0.0 0.0 0.00 0.00 0.00 87
20260903211226 0 0 0.0 0.0 0.00 0.00 0.00 85
20260903210726 0 11 1.0 6.0 0.00 0.00 0.00 85
20260903210226 0 0 0.0 3.0 0.00 0.00 0.00 84
20260903205727 0 0 1.0 5.0 0.00 0.00 0.00 85
20260903205226 0 0 1.0 6.0 0.00 0.00 0.00 83
20260903204727 0 343 3.0 11.0 0.00 0.00 0.00 83
20260903204226 0 357 0.0 4.0 0.00 0.00 0.00 84
20260903203958 0 357 0.0 3.0 0.00 0.00 0.00 85
20260903203726 0 357 0.0 3.0 0.00 0.00 0.00 85
20260903203227 0 0 0.0 0.0 0.00 0.00 0.00 84
20260903202726 0 0 0.0 0.0 0.00 0.00 0.00 84
20260903202226 0 357 0.0 3.0 0.00 0.00 0.00 83
20260903201726 0 0 0.0 0.0 0.00 0.00 0.00 83
20260903201226 0 270 1.0 3.0 0.00 0.00 0.00 83
20260903200226 0 0 0.0 0.0 0.00 0.00 0.00 83
20260903195726 0 0 0.0 0.0 0.00 0.00 0.00 83
20260903195226 0 0 0.0 0.0 0.00 0.00 0.00 83
20260903194726 0 0 0.0 0.0 0.00 0.00 0.00 83
20260903194226 80 0 0.0 0.0 0.00 0.00 0.00 84
20260903193726 0 0 0.0 0.0 0.00 0.00 0.00 83
20260903193226 0 0 0.0 0.0 0.00 0.00 0.00 84
20260903192726 0 270 1.0 5.0 0.00 0.00 0.00 83
20260903192226 0 0 0.0 0.0 0.00 0.00 0.00 84
20260903191726 0 0 0.0 0.0 0.00 0.00 0.00 82
20260903191226 0 0 0.0 0.0 0.00 0.00 0.00 82
20260903190726 0 0 0.0 0.0 0.00 0.00 0.00 81
20260903190226 -55 284 0.0 4.0 0.00 0.00 0.00 81
20260903185727 30 0 0.0 0.0 0.00 0.00 0.00 81
20260903185226 36 0 0.0 0.0 0.00 0.00 0.00 80
20260903184726 54 298 1.0 5.0 0.00 0.00 0.00 79
20260903184226 0 283 0.0 3.0 0.00 0.00 0.00 80
20260903183728 -28 0 0.0 0.0 0.00 0.00 0.00 80
20260903183226 0 0 0.0 0.0 0.00 0.00 0.00 81
20260903182727 0 0 0.0 0.0 0.00 0.00 0.00 80
20260903182226 0 0 0.0 0.0 0.00 0.00 0.00 80
20260903181726 0 283 0.0 3.0 0.00 0.00 0.00 79
20260903181226 -55 283 0.0 2.0 0.00 0.00 0.00 78
20260903180727 0 0 0.0 0.0 0.00 0.00 0.00 76
20260903175726 0 359 1.0 3.0 0.00 0.00 0.00 77
20260903175226 0 0 0.0 0.0 0.00 0.00 0.00 78
20260903174726 -55 0 0.0 0.0 0.00 0.00 0.00 80
20260903173726 0 0 0.0 0.0 0.00 0.00 0.00 77
20260903173228 -55 359 0.0 1.0 0.00 0.00 0.00 79
20260903172726 -31 0 0.0 0.0 0.00 0.00 0.00 78
20260903172226 -28 0 0.0 0.0 0.00 0.00 0.00 80
20260903170728 79 0 0.0 0.0 0.00 0.00 0.00 81
20260903170226 46 0 0.0 0.0 0.00 0.00 0.00 81
20260903165726 -55 0 0.0 0.0 0.00 0.00 0.00 81
20260903164727 12 0 0.0 0.0 0.00 0.00 0.00 85
20260903164227 51 0 0.0 0.0 0.00 0.00 0.00 83
20260903163726 4 0 0.0 0.0 0.00 0.00 0.00 83
20260903163228 8 0 0.0 0.0 0.00 0.00 0.00 83
20260903162227 35 0 0.0 0.0 0.00 0.00 0.00 84
20260903161730 71 0 0.0 0.0 0.00 0.00 0.00 87
20260903161226 69 0 0.0 0.0 0.00 0.00 0.00 87
20260903160726 2 0 0.0 0.0 0.00 0.00 0.00 87
20260903160227 16 0 0.0 0.0 0.00 0.00 0.00 89
20260903155727 66 0 0.0 0.0 0.00 0.00 0.00 91
20260903155226 66 0 0.0 0.0 0.00 0.00 0.00 92
20260903154726 65 0 0.0 0.0 0.00 0.00 0.00 93
20260903154226 65 0 0.0 0.0 0.00 0.00 0.00 93
20260903153726 65 0 0.0 0.0 0.00 0.00 0.00 93
20260903153227 65 0 0.0 0.0 0.00 0.00 0.00 94
20260903152728 65 0 0.0 0.0 0.00 0.00 0.00 94
20260903152226 65 0 0.0 0.0 0.00 0.00 0.00 95
20260903151726 65 0 0.0 0.0 0.00 0.00 0.00 96
20260903151226 64 0 0.0 0.0 0.00 0.00 0.00 96
20260903150727 64 0 0.0 0.0 0.00 0.00 0.00 97
20260903150226 64 0 0.0 0.0 0.00 0.00 0.00 97
20260903145731 63 0 0.0 0.0 0.00 0.00 0.00 98
20260903145226 63 0 0.0 0.0 0.00 0.00 0.00 98
20260903144727 63 0 0.0 0.0 0.00 0.00 0.00 98
20260903144227 63 0 0.0 0.0 0.00 0.00 0.00 98
20260903143727 63 0 0.0 0.0 0.00 0.00 0.00 99
20260903143228 63 0 0.0 0.0 0.00 0.00 0.00 99
20260903142727 62 0 0.0 0.0 0.00 0.00 0.00 99
20260903142227 62 0 0.0 0.0 0.00 0.00 0.00 100
20260903141730 62 0 0.0 0.0 0.00 0.00 0.00 100
20260903141226 62 0 0.0 0.0 0.00 0.00 0.00 100
20260903140726 62 0 0.0 0.0 0.00 0.00 0.00 100
20260903140227 61 0 0.0 0.0 0.00 0.00 0.00 100
20260903135727 61 0 0.0 0.0 0.00 0.00 0.00 100
20260903135226 60 0 0.0 0.0 0.00 0.00 0.00 100
20260903134728 61 0 0.0 0.0 0.00 0.00 0.00 100
20260903134228 61 0 0.0 0.0 0.00 0.00 0.00 100
20260903133727 62 0 0.0 0.0 0.00 0.00 0.00 100
20260903133232 62 0 0.0 0.0 0.00 0.00 0.00 100
20260903132728 62 0 0.0 0.0 0.00 0.00 0.00 100
20260903132227 64 0 0.0 0.0 0.00 0.00 0.00 100
20260903131727 71 0 0.0 0.0 0.00 0.00 0.00 100
20260903131228 71 0 0.0 0.0 0.00 0.00 0.00 100
20260903130726 71 0 0.0 0.0 0.00 0.00 0.00 100
20260903130227 72 0 0.0 0.0 0.00 0.00 0.00 100
20260903125727 72 0 0.0 0.0 0.00 0.00 0.00 100
20260903125227 73 0 0.0 0.0 0.00 0.00 0.00 100
20260903124728 0 0 0.0 0.0 0.00 0.00 0.00 100
20260903124227 -55 0 0.0 0.0 0.00 0.00 0.00 100
20260903123726 0 0 0.0 0.0 0.00 0.00 0.00 100
20260903123229 0 0 0.0 0.0 0.00 0.00 0.00 100
20260903122727 0 0 0.0 0.0 0.00 0.00 0.00 100
20260903122228 0 0 0.0 0.0 0.00 0.00 0.00 100
20260903121728 0 0 0.0 0.0 0.00 0.00 0.00 100
20260903121227 0 0 0.0 0.0 0.00 0.00 0.00 100
20260903120727 0 0 0.0 0.0 0.00 0.00 0.00 100
20260903120227 0 0 0.0 0.0 0.00 0.00 0.00 100
20260903115728 0 0 0.0 0.0 0.00 0.00 0.00 100
20260903115227 0 0 0.0 0.0 0.00 0.00 0.00 100
20260903114727 0 0 0.0 0.0 0.00 0.00 0.00 100
20260903114227 0 0 0.0 0.0 0.00 0.00 0.00 100
20260903113727 0 0 0.0 0.0 0.00 0.00 0.00 100
20260903113227 0 0 0.0 0.0 0.00 0.00 0.00 100
20260903112727 0 0 0.0 0.0 0.00 0.00 0.00 100
20260903112227 0 0 0.0 0.0 0.00 0.00 0.00 100
20260903111730 0 0 0.0 0.0 0.00 0.00 0.00 100
20260903111228 0 0 0.0 0.0 0.00 0.00 0.00 100
20260903110800 0 0 0.0 0.0 0.00 0.00 0.00 100
20260903110727 0 0 0.0 0.0 0.00 0.00 0.00 100
20260903110228 0 0 0.0 0.0 0.00 0.00 0.00 100
20260903105727 0 0 0.0 0.0 0.00 0.00 0.00 100
20260903105227 0 0 0.0 0.0 0.00 0.00 0.00 100
20260903104727 0 0 0.0 0.0 0.00 0.00 0.00 100
20260903104227 0 0 0.0 0.0 0.00 0.00 0.00 100
20260903103727 0 0 0.0 0.0 0.00 0.00 0.00 100
20260903103227 0 0 0.0 0.0 0.00 0.00 0.00 100
20260903102729 0 0 0.0 0.0 0.00 0.00 0.00 100
20260903102227 0 0 0.0 0.0 0.00 0.00 0.00 100
20260903101728 0 0 0.0 0.0 0.00 0.00 0.00 100
20260903101229 0 0 0.0 0.0 0.00 0.00 0.00 100
20260903100728 0 0 0.0 0.0 0.00 0.00 0.00 100
20260903100227 0 0 0.0 0.0 0.00 0.00 0.00 100
20260903095727 0 0 0.0 0.0 0.00 0.00 0.00 100
20260903095227 0 0 0.0 0.0 0.00 0.00 0.00 100
20260903094728 0 0 0.0 0.0 0.00 0.00 0.00 100
20260903094227 0 0 0.0 0.0 0.00 0.00 0.00 100
20260903093727 0 0 0.0 0.0 0.00 0.00 0.00 100
20260903093227 0 0 0.0 0.0 0.00 0.00 0.00 100
20260903092730 0 0 0.0 0.0 0.00 0.00 0.00 100
20260903092228 0 0 0.0 0.0 0.00 0.00 0.00 100
20260903091730 0 0 0.0 0.0 0.00 0.00 0.00 100
20260903091232 0 0 0.0 0.0 0.00 0.00 0.00 100
20260903090727 0 0 0.0 0.0 0.00 0.00 0.00 100
20260903090230 0 0 0.0 0.0 0.00 0.00 0.00 100
20260903085727 0 0 0.0 0.0 0.00 0.00 0.00 100
20260903085227 0 0 0.0 0.0 0.00 0.00 0.00 100
20260903084729 0 0 0.0 0.0 0.00 0.00 0.00 100
20260903084230 0 0 0.0 0.0 0.00 0.00 0.00 100
20260903083727 0 0 0.0 0.0 0.00 0.00 0.00 100
20260903083228 0 0 0.0 0.0 0.00 0.00 0.00 100
20260903082727 0 0 0.0 0.0 0.00 0.00 0.00 100
20260903082228 0 0 0.0 0.0 0.00 0.00 0.00 100
20260903081727 0 0 0.0 0.0 0.00 0.00 0.00 100
20260903081228 0 0 0.0 0.0 0.00 0.00 0.00 100
20260903080727 0 0 0.0 0.0 0.00 0.00 0.00 100
20260903080229 0 0 0.0 0.0 0.00 0.00 0.00 100
20260903075728 0 0 0.0 0.0 0.00 0.00 0.00 100
20260903075228 0 0 0.0 0.0 0.00 0.00 0.00 100
20260903074728 0 0 0.0 0.0 0.00 0.00 0.00 100
20260903074227 0 0 0.0 0.0 0.00 0.00 0.00 100
20260903073728 0 0 0.0 0.0 0.00 0.00 0.00 100
20260903073228 0 0 0.0 0.0 0.00 0.00 0.00 100
20260903072727 0 0 0.0 0.0 0.00 0.00 0.00 100
20260903072227 0 0 0.0 0.0 0.00 0.00 0.00 100
20260903071727 0 0 0.0 0.0 0.00 0.00 0.00 100
20260903071228 0 0 0.0 0.0 0.00 0.00 0.00 100
20260903070728 0 0 0.0 0.0 0.00 0.00 0.00 100
20260903070227 0 0 0.0 0.0 0.00 0.00 0.00 100
20260903065729 0 0 0.0 0.0 0.00 0.00 0.00 100
20260903065230 0 0 0.0 0.0 0.00 0.00 0.00 100
20260903064727 0 0 0.0 0.0 0.00 0.00 0.00 100
20260903064228 0 0 0.0 0.0 0.00 0.00 0.00 100
20260903063728 0 0 0.0 0.0 0.00 0.00 0.00 100
20260903062727 0 0 0.0 0.0 0.00 0.00 0.00 100
20260903062228 0 0 0.0 0.0 0.00 0.00 0.00 100
20260903061727 0 0 0.0 0.0 0.00 0.00 0.00 100
20260903061228 0 0 0.0 0.0 0.00 0.00 0.00 100
20260903060727 0 0 0.0 0.0 0.00 0.00 0.00 100
20260903060228 0 0 0.0 0.0 0.00 0.00 0.00 99
20260903055727 -55 0 0.0 0.0 0.00 0.00 0.00 98
20260903055228 0 0 0.0 0.0 0.00 0.00 0.00 98
20260903054728 -55 0 0.0 0.0 0.00 0.00 0.00 97
20260903054227 -55 0 0.0 0.0 0.00 0.00 0.00 98
20260903053734 0 0 0.0 0.0 0.00 0.00 163.84 98
20260903053729 0 0 0.0 0.0 0.00 0.00 0.00 98
20260903053227 0 0 0.0 0.0 0.00 0.00 0.00 97
20260903052727 0 0 0.0 0.0 0.00 0.00 0.00 97
20260903052306 0 0 0.0 0.0 0.00 0.00 0.00 97
20260903052228 0 0 0.0 0.0 0.00 0.00 0.00 97
20260903051727 0 0 0.0 0.0 0.00 0.00 0.00 96
20260903051227 0 0 0.0 0.0 0.00 0.00 0.00 96
20260903050727 0 0 0.0 0.0 0.00 0.00 0.00 96
20260903050227 0 0 0.0 0.0 0.00 0.00 0.00 97
20260903045730 0 0 0.0 0.0 0.00 0.00 0.00 97
20260903045231 0 0 0.0 0.0 0.00 0.00 0.00 97
20260903044728 0 0 0.0 0.0 0.00 0.00 0.00 97
20260903044228 0 0 0.0 0.0 0.00 0.00 0.00 97
20260903043802 0 0 0.0 0.0 0.00 0.00 0.00 96
20260903043728 0 0 0.0 0.0 0.00 0.00 0.00 96
20260903043230 0 0 0.0 0.0 0.00 0.00 0.00 96
20260903042729 0 0 0.0 0.0 0.00 0.00 0.00 96
20260903042229 0 0 0.0 0.0 0.00 0.00 0.00 97
20260903041729 0 0 0.0 0.0 0.00 0.00 0.00 96
20260903041229 0 0 0.0 0.0 0.00 0.00 0.00 97
20260903040729 0 0 0.0 0.0 0.00 0.00 0.00 97
20260903040228 0 0 0.0 0.0 0.00 0.00 0.00 98
20260903035728 0 0 0.0 0.0 0.00 0.00 0.00 99
20260903035230 0 0 0.0 0.0 0.00 0.00 0.00 99
20260903034728 0 0 0.0 0.0 0.00 0.00 0.00 100
20260903034228 0 0 0.0 0.0 0.00 0.00 0.00 100
20260903033728 0 0 0.0 0.0 0.00 0.00 0.00 100
20260903033229 0 0 0.0 0.0 0.00 0.00 0.00 100
20260903032728 0 0 0.0 0.0 0.00 0.00 0.00 100
20260903032228 0 0 0.0 0.0 0.00 0.00 0.00 100
20260903031729 0 0 0.0 0.0 0.00 0.00 0.00 100
20260903031228 0 0 0.0 0.0 0.00 0.00 0.00 100
20260903030728 0 0 0.0 0.0 0.00 0.00 0.00 100
20260903030229 60 0 0.0 0.0 0.00 0.00 0.00 100
20260903025729 67 0 0.0 0.0 0.00 0.00 0.00 100
20260903025228 0 0 0.0 0.0 0.00 0.00 0.00 100
20260903024728 0 0 0.0 0.0 0.00 0.00 0.00 100
20260903024227 0 0 0.0 0.0 0.00 0.00 0.00 100
20260903023728 0 0 0.0 0.0 0.00 0.00 0.00 100
20260903023229 0 0 0.0 0.0 0.00 0.00 0.00 100
20260903022728 0 0 0.0 0.0 0.00 0.00 0.00 100